STARLINK-30510, 57981

Orbit data source: Space-Track

STARLINK-30510, 57981 is a payload satellite owned by SpaceX/Seattle (US) in LEO that was launched on Sat, 30 Sep 2023 UTC via an FALCON 9 launch vehicle from the Air Force Eastern Test Range (AFETR). Payload-class satellites include a variety of spacecraft equipped with specific instruments for various scientific and technological missions. These include communications satellites like Starlink; space stations such as the ISS; scientific satellites like the Hubble; Earth observation satellites from companies like Planet Labs, Umbra, and HawkEye 360; GPS; miniature CubeSats for education and research; and military/defense satellites.

Loading next visibility...
Identifier
57981, 2023-151T
Orbit
LEO
Country
Flag of USUS
Related business
Manufacturer
SpaceX/Seattle
Mission
Operational Commercial Communications
Bus & Motor
STARLINK V2M, Unknown motor
Mass
730 kg wet, ~700 kg dry
Launch date (UTC)
2023-09-30 (3 years ago)
Launch vehicle
FALCON 9
Launch site
Air Force Eastern Test Range (AFETR)
Object type
Payload
Rocket body
Debris
Shape & HBR
Box + 2 Pan, 17.7 m
Radar Cross Section
33.884 m², Large (>1 m²)

Expand to show TLE details & history
Last TLE update: 1 day ago

TLE from 1 day ago
0 STARLINK-30510
1 57981U 23151T   26175.12731300 -.00000307  00000-0 -16479-5 0  9994
2 57981  43.0016 112.8116 0000883 255.1587 104.9167 15.27572070151830
Epoch: 2026-06-24T03:03Z
TLE epoch observation values (Epoch: 2026-06-24T03:03:19.843Z)
Latitude
Longitude
154.68994°
Altitude
483.004 km
Speed
7.626 km/s
True Right ascension
07h 31m 14s
True Declination
0° 00' 00"
Sunlit
Object was in daylight at epoch
Visualization orbit readout
Latitude
Unknown
Longitude
Unknown
Altitude
Unknown
Speed
Unknown
Apparent Right ascension
Unknown
Apparent Declination
Unknown
Sunlit
N/A
Visualization observer readout
Local Sidereal Time
15:09:17
Azimuth
Unknown
Elevation
Unknown
Doppler factor
Unknown
Orbital elements
Apogee altitude
485.624 km
Perigee altitude
484.412 km
Semi-major axis
6,863.155 km
Eccentricity
0.00009
Inclination
43.0016°
RAAN
112.8116°
Arg. of periapsis
255.1587°
True anomaly
104.92648°
Mean anomaly
104.9167°
Eccentric anomaly
104.92159°
Mean motion
3.81731 °/min
Orbital period
94.31 mins
BSTAR
-0.0000016479
Loading maneuver chart data...
Computing Atmospheric mass density...
Loading historical data...
Loading historical data...
Loading historical data...
Loading historical data...
Loading historical data...
Loading historical data...
Loading historical data...

Documentation

Showing up to 5 results
|